• In Hungary
  • List of Countries
  • For 7 days
  • Water Temperature
  • Satellite Maps
  • Weather Map
  • News
  • Weather Widgets
  • user-avatar
    Login

    Hourly Weather Potok

    Today, 25 September, Tuesday

    Time Temperature Precipitation Wind Pressure Humidity
    00:00 +5°C° 0 mm 6 mps 761 mmHg 70%
    01:00 +5°C° 0 mm 5 mps 762 mmHg 75%
    02:00 +5°C° 0 mm 5 mps 762 mmHg 76%
    03:00 +5°C° 0 mm 5 mps 762 mmHg 77%
    04:00 +5°C° 0 mm 5 mps 763 mmHg 78%
    05:00 +5°C° 0 mm 5 mps 763 mmHg 77%
    06:00 +5°C° 0 mm 5 mps 764 mmHg 76%
    07:00 +5°C° 0 mm 6 mps 765 mmHg 75%
    08:00 +7°C° 0 mm 6 mps 765 mmHg 65%
    09:00 +9°C° 0 mm 6 mps 766 mmHg 55%
    10:00 +11°C° 0 mm 7 mps 766 mmHg 45%
    11:00 +11°C° 0 mm 7 mps 767 mmHg 43%
    12:00 +12°C° 0 mm 7 mps 767 mmHg 41%
    13:00 +12°C° 0 mm 7 mps 767 mmHg 39%
    14:00 +13°C° 0 mm 6 mps 767 mmHg 40%
    15:00 +13°C° 0 mm 5 mps 768 mmHg 41%
    16:00 +13°C° 0 mm 5 mps 768 mmHg 42%
    17:00 +11°C° 0 mm 4 mps 768 mmHg 45%
    18:00 +10°C° 0 mm 3 mps 769 mmHg 49%
    19:00 +9°C° 0 mm 2 mps 769 mmHg 52%
    20:00 +8°C° 0 mm 2 mps 770 mmHg 56%
    21:00 +8°C° 0 mm 2 mps 770 mmHg 60%
    22:00 +7°C° 0 mm 2 mps 770 mmHg 64%
    23:00 +7°C° 0 mm 2 mps 770 mmHg 67%

    Tomorrow, 26 September, Wednesday

    Time Temperature Precipitation Wind Pressure Humidity
    00:00 +6°C° 0 mm 2 mps 770 mmHg 70%
    01:00 +6°C° 0 mm 2 mps 771 mmHg 73%
    02:00 +6°C° 0 mm 2 mps 770 mmHg 75%
    03:00 +6°C° 0 mm 2 mps 770 mmHg 78%
    04:00 +4°C° 0 mm 3 mps 770 mmHg 81%
    05:00 +5°C° 0 mm 3 mps 770 mmHg 78%
    06:00 +5°C° 0 mm 4 mps 770 mmHg 75%
    07:00 +6°C° 0 mm 4 mps 770 mmHg 72%
    08:00 +7°C° 0 mm 5 mps 770 mmHg 65%
    09:00 +9°C° 0 mm 5 mps 769 mmHg 59%
    10:00 +11°C° 0 mm 6 mps 769 mmHg 52%
    11:00 +11°C° 0.1 mm 6 mps 769 mmHg 53%
    12:00 +11°C° 0.1 mm 6 mps 768 mmHg 54%
    13:00 +11°C° 0.1 mm 6 mps 767 mmHg 54%
    14:00 +11°C° 0 mm 6 mps 767 mmHg 53%
    15:00 +11°C° 0 mm 6 mps 766 mmHg 52%
    16:00 +11°C° 0 mm 6 mps 765 mmHg 50%
    17:00 +11°C° 0 mm 6 mps 765 mmHg 49%
    18:00 +13°C° 0 mm 6 mps 764 mmHg 48%
    19:00 +13°C° 0 mm 6 mps 764 mmHg 46%
    20:00 +13°C° 0 mm 6 mps 764 mmHg 47%
    21:00 +12°C° 0 mm 7 mps 764 mmHg 47%
    22:00 +12°C° 0 mm 7 mps 763 mmHg 48%
    23:00 +12°C° 0 mm 7 mps 763 mmHg 50%

    Day after tomorrow, 27 September, Thursday

    Time Temperature Precipitation Wind Pressure Humidity
    00:00 +12°C° 0 mm 7 mps 763 mmHg 52%
    01:00 +12°C° 0 mm 7 mps 762 mmHg 54%
    02:00 +11°C° 0 mm 7 mps 762 mmHg 57%
    03:00 +11°C° 0 mm 7 mps 762 mmHg 60%
    04:00 +11°C° 0 mm 7 mps 762 mmHg 64%
    05:00 +11°C° 0 mm 7 mps 762 mmHg 67%
    06:00 +11°C° 0 mm 7 mps 762 mmHg 70%
    07:00 +11°C° 0 mm 7 mps 762 mmHg 72%
    08:00 +14°C° 0 mm 7 mps 762 mmHg 71%
    09:00 +15°C° 0 mm 7 mps 762 mmHg 69%
    10:00 +16°C° 0 mm 7 mps 762 mmHg 67%
    11:00 +17°C° 0 mm 7 mps 762 mmHg 65%
    12:00 +18°C° 0 mm 7 mps 762 mmHg 63%
    13:00 +20°C° 0 mm 7 mps 762 mmHg 61%
    14:00 +20°C° 0 mm 6 mps 762 mmHg 63%
    15:00 +20°C° 0 mm 6 mps 762 mmHg 65%
    16:00 +19°C° 0 mm 5 mps 762 mmHg 66%
    17:00 +18°C° 0 mm 4 mps 761 mmHg 71%
    18:00 +17°C° 0 mm 4 mps 761 mmHg 75%
    19:00 +16°C° 0 mm 3 mps 761 mmHg 80%
    20:00 +16°C° 0 mm 3 mps 761 mmHg 82%
    21:00 +14°C° 0 mm 3 mps 760 mmHg 84%
    22:00 +14°C° 0 mm 3 mps 760 mmHg 86%
    23:00 +14°C° 0 mm 4 mps 759 mmHg 86%

    28 September, Friday

    Time Temperature Precipitation Wind Pressure Humidity
    00:00 +14°C° 0 mm 4 mps 759 mmHg 85%
    01:00 +14°C° 0 mm 5 mps 758 mmHg 85%
    02:00 +14°C° 0 mm 5 mps 757 mmHg 83%
    03:00 +14°C° 0 mm 5 mps 757 mmHg 82%
    04:00 +14°C° 0 mm 5 mps 756 mmHg 80%
    05:00 +14°C° 0 mm 5 mps 756 mmHg 77%
    06:00 +14°C° 0 mm 5 mps 756 mmHg 74%
    07:00 +13°C° 0 mm 5 mps 756 mmHg 72%
    08:00 +14°C° 0 mm 6 mps 756 mmHg 69%
    09:00 +16°C° 0 mm 6 mps 756 mmHg 66%
    10:00 +17°C° 0 mm 6 mps 756 mmHg 64%
    11:00 +16°C° 0 mm 6 mps 757 mmHg 63%
    12:00 +16°C° 0 mm 5 mps 757 mmHg 61%
    13:00 +16°C° 0 mm 5 mps 757 mmHg 60%
    14:00 +16°C° 0 mm 5 mps 757 mmHg 57%
    15:00 +16°C° 0 mm 5 mps 757 mmHg 53%
    16:00 +15°C° 0 mm 4 mps 757 mmHg 50%
    17:00 +14°C° 0 mm 4 mps 758 mmHg 54%
    18:00 +13°C° 0 mm 3 mps 758 mmHg 58%
    19:00 +12°C° 0 mm 3 mps 758 mmHg 62%
    20:00 +11°C° 0 mm 3 mps 759 mmHg 65%
    21:00 +11°C° 0 mm 3 mps 759 mmHg 68%
    22:00 +10°C° 0 mm 3 mps 759 mmHg 71%
    23:00 +10°C° 0 mm 3 mps 760 mmHg 74%

    29 September, Saturday

    Time Temperature Precipitation Wind Pressure Humidity
    00:00 +9°C° 0 mm 3 mps 760 mmHg 78%
    01:00 +9°C° 0 mm 3 mps 760 mmHg 82%
    02:00 +8°C° 0 mm 3 mps 760 mmHg 84%
    03:00 +8°C° 0 mm 3 mps 761 mmHg 86%
    04:00 +7°C° 0 mm 3 mps 761 mmHg 88%
    05:00 +7°C° 0 mm 3 mps 762 mmHg 86%
    06:00 +7°C° 0 mm 3 mps 762 mmHg 84%
    07:00 +7°C° 0 mm 3 mps 763 mmHg 83%
    08:00 +9°C° 0 mm 3 mps 763 mmHg 73%
    09:00 +10°C° 0 mm 4 mps 764 mmHg 64%
    10:00 +12°C° 0 mm 4 mps 764 mmHg 54%
    11:00 +13°C° 0 mm 3 mps 764 mmHg 49%
    12:00 +13°C° 0 mm 3 mps 764 mmHg 43%
    13:00 +14°C° 0 mm 3 mps 764 mmHg 38%
    14:00 +14°C° 0 mm 3 mps 764 mmHg 38%
    15:00 +14°C° 0 mm 2 mps 764 mmHg 39%
    16:00 +14°C° 0 mm 2 mps 764 mmHg 39%
    17:00 +13°C° 0 mm 2 mps 764 mmHg 43%
    18:00 +11°C° 0 mm 1 mps 765 mmHg 46%
    19:00 +10°C° 0 mm 1 mps 765 mmHg 50%
    20:00 +10°C° 0 mm 1 mps 765 mmHg 51%
    21:00 +9°C° 0 mm 1 mps 765 mmHg 52%
    22:00 +9°C° 0 mm 1 mps 765 mmHg 53%
    23:00 +7°C° 0 mm 2 mps 765 mmHg 53%

    30 September, Sunday

    Time Temperature Precipitation Wind Pressure Humidity
    00:00 +7°C° 0 mm 2 mps 765 mmHg 54%
    01:00 +7°C° 0 mm 2 mps 765 mmHg 55%
    02:00 +6°C° 0 mm 2 mps 765 mmHg 56%
    03:00 +6°C° 0 mm 2 mps 765 mmHg 57%
    04:00 +6°C° 0 mm 2 mps 765 mmHg 58%
    05:00 +6°C° 0 mm 2 mps 765 mmHg 58%
    06:00 +6°C° 0 mm 2 mps 764 mmHg 59%
    07:00 +6°C° 0 mm 2 mps 764 mmHg 60%
    08:00 +8°C° 0 mm 2 mps 764 mmHg 54%
    09:00 +10°C° 0 mm 3 mps 764 mmHg 49%
    10:00 +12°C° 0 mm 3 mps 764 mmHg 43%
    11:00 +13°C° 0 mm 3 mps 763 mmHg 40%
    12:00 +14°C° 0 mm 3 mps 762 mmHg 37%
    13:00 +14°C° 0 mm 3 mps 762 mmHg 33%
    14:00 +14°C° 0 mm 3 mps 761 mmHg 36%
    15:00 +14°C° 0 mm 3 mps 761 mmHg 38%
    16:00 +14°C° 0 mm 3 mps 760 mmHg 40%
    17:00 +13°C° 0 mm 2 mps 760 mmHg 46%
    18:00 +12°C° 0 mm 2 mps 760 mmHg 51%
    19:00 +9°C° 0 mm 2 mps 760 mmHg 56%
    20:00 +9°C° 0 mm 2 mps 759 mmHg 60%
    21:00 +9°C° 0 mm 2 mps 759 mmHg 63%
    22:00 +8°C° 0 mm 2 mps 759 mmHg 67%
    23:00 +8°C° 0 mm 2 mps 758 mmHg 69%
    Show more